Location: Caltech
(34.1382°N, 118.1253°W)
Time: 08:44:44
(UTC-08:00)

Courier 1B - Visible Passes

Search period start: 04 March 2015 00:00
Search period end: 14 March 2015 01:00
Orbit: 963 x 1209 km, 28.3° (Epoch: 02 March)

Date Brightness Start Highest point End Pass type
(mag) Time Alt. Az. Time Alt. Az. Time Alt. Az.
04 Mar 10.0 02:41:11 14° ESE 02:41:11 14° ESE 02:43:02 10° ESE visible
04 Mar 8.7 04:28:05 26° SSW 04:31:37 41° SSE 04:38:51 10° E visible
05 Mar 8.8 03:37:46 34° SSE 03:37:50 34° SSE 03:44:43 10° E visible
05 Mar 8.4 05:24:39 11° WSW 05:31:44 55° S 05:39:22 10° E visible
06 Mar 9.7 02:47:23 21° ESE 02:47:23 21° ESE 02:50:27 10° E visible
06 Mar 8.4 04:34:18 30° SW 04:37:53 50° S 04:45:24 10° E visible
07 Mar 8.4 03:43:53 45° S 03:44:03 45° SSE 03:51:21 10° E visible
07 Mar 8.3 05:30:47 11° WSW 05:38:04 57° S 05:45:45 10° ESE visible
08 Mar 9.3 03:53:28 27° ESE 03:53:28 27° ESE 03:57:15 10° E visible
08 Mar 8.2 05:40:21 29° WSW 05:44:12 56° S 05:51:48 10° E visible
09 Mar 10.3 03:03:02 10° E 03:03:02 10° E 03:03:04 10° E visible
09 Mar 8.1 04:49:55 52° S 04:50:22 53° S 04:57:50 10° E visible
09 Mar 8.4 06:37:05 10° W 06:44:25 53° S 06:52:00 10° ESE visible
10 Mar 9.0 03:59:28 33° ESE 03:59:28 33° ESE 04:03:49 10° E visible
10 Mar 8.2 05:46:22 26° WSW 05:50:34 56° S 05:58:08 10° ESE visible
11 Mar 10.1 03:09:02 13° E 03:09:02 13° E 03:09:46 10° E visible
11 Mar 7.9 04:55:55 53° SSW 04:56:43 56° S 05:04:12 10° ESE visible
12 Mar 8.8 04:05:30 38° ESE 04:05:30 38° ESE 04:10:14 10° E visible
12 Mar 8.3 05:52:23 23° WSW 05:56:54 49° S 06:04:18 10° ESE visible
13 Mar 10.0 03:15:06 15° ESE 03:15:06 15° ESE 03:16:15 10° E visible
13 Mar 8.0 05:01:59 49° SW 05:03:06 53° S 05:10:27 10° ESE visible
